CT2HBZ Weather Reports


Display with metric or nautical units.
time (UTC)temp
F
wind
direction
speed
MPH
gust
MPH
rain 1hr
in
rain 24hr
in
rain mn
in
humidity
%
barometer
mb
20260507043415 55 322 3.0 5.0 0.00 0.00 0.00 74 1012.8
20260507042435 55 314 2.0 4.0 0.00 0.00 0.00 74 1013.0
20260507041415 55 237 2.0 4.0 0.00 0.00 0.00 73 1013.0
20260507040416 55 316 4.0 10.0 0.00 0.00 0.00 73 1013.1
20260507035435 55 325 4.0 6.0 0.00 0.00 0.00 73 1013.2
20260507034415 55 328 5.0 10.0 0.00 0.00 0.00 74 1013.3
20260507033416 55 278 2.0 6.0 0.00 0.00 0.00 73 1013.3
20260507032415 55 315 4.0 7.0 0.00 0.00 0.00 74 1013.4
20260507031435 55 292 3.0 7.0 0.00 0.00 0.00 73 1013.5
20260507030415 56 296 3.0 10.0 0.00 0.00 0.00 72 1013.5
20260507025415 56 290 5.0 10.0 0.00 0.00 0.00 73 1013.4
20260507024416 55 320 4.0 10.0 0.00 0.00 0.00 73 1013.3
20260507023415 55 320 5.0 14.0 0.00 0.00 0.00 74 1013.3
20260507022436 55 312 5.0 10.0 0.00 0.00 0.00 75 1013.4
20260507021415 55 316 2.0 8.0 0.00 0.00 0.00 75 1013.5
20260507020415 55 331 5.0 9.0 0.00 0.00 0.00 75 1013.6
20260507015415 55 315 3.0 8.0 0.00 0.00 0.00 75 1013.7
20260507014415 55 324 5.0 9.0 0.00 0.00 0.00 74 1013.8
20260507013415 56 330 5.0 8.0 0.00 0.00 0.00 72 1013.9
20260507012436 56 306 2.0 4.0 0.00 0.00 0.00 71 1014.0
20260507011436 56 290 2.0 5.0 0.00 0.00 0.00 71 1014.1
20260507010415 57 333 2.0 6.0 0.00 0.00 0.00 70 1014.0
20260507005435 57 298 2.0 4.0 0.00 0.00 0.00 70 1014.1
20260507004415 57 330 5.0 8.0 0.00 0.00 0.00 70 1014.0
20260507003435 57 312 4.0 9.0 0.00 0.00 0.00 70 1013.9
20260507002416 57 322 5.0 10.0 0.00 0.00 0.00 70 1014.0
20260507001415 57 314 4.0 12.0 0.00 0.00 0.00 69 1014.0
20260507000415 57 332 7.0 13.0 0.00 0.00 0.00 69 1014.1
20260506235416 57 319 6.0 13.0 0.00 0.00 0.00 69 1014.1
20260506234416 57 328 8.0 15.0 0.00 0.00 0.00 69 1014.1
20260506233415 57 331 10.0 15.0 0.00 0.00 0.00 69 1014.1
20260506232415 57 336 7.0 16.0 0.00 0.00 0.00 69 1014.2
20260506231415 57 324 9.0 15.0 0.00 0.00 0.00 68 1014.2
20260506230435 57 320 10.0 17.0 0.00 0.00 0.00 66 1014.1
20260506225416 58 330 9.0 15.0 0.00 0.00 0.00 66 1014.1
20260506224415 58 332 8.0 17.0 0.00 0.00 0.00 65 1014.2
20260506223415 58 335 11.0 18.0 0.00 0.00 0.00 64 1014.2
20260506222415 58 332 10.0 18.0 0.00 0.00 0.00 65 1014.3
20260506221415 58 337 14.0 24.0 0.00 0.00 0.00 65 1014.2
20260506220416 58 325 11.0 20.0 0.00 0.00 0.00 65 1014.4
20260506215415 58 331 10.0 19.0 0.00 0.00 0.00 66 1014.4
20260506214415 58 327 11.0 20.0 0.00 0.00 0.00 65 1014.6
20260506213415 58 321 8.0 19.0 0.00 0.00 0.00 66 1014.5
20260506212415 58 319 8.0 18.0 0.00 0.00 0.00 66 1014.5
20260506211436 59 319 9.0 15.0 0.00 0.00 0.00 66 1014.5
20260506210415 58 327 6.0 17.0 0.00 0.00 0.00 66 1014.4
20260506205416 59 324 9.0 16.0 0.00 0.00 0.00 65 1014.3
20260506204415 59 332 8.0 13.0 0.00 0.00 0.00 65 1014.3
20260506203415 59 332 10.0 17.0 0.00 0.00 0.00 64 1014.2
20260506202415 59 323 10.0 19.0 0.00 0.00 0.00 64 1014.3
20260506201415 59 318 8.0 17.0 0.00 0.00 0.00 62 1014.2
20260506200416 60 318 10.0 17.0 0.00 0.00 0.00 61 1014.2
20260506195415 60 323 8.0 18.0 0.00 0.00 0.00 59 1014.1
20260506194415 60 330 8.0 17.0 0.00 0.00 0.00 58 1014.1
20260506193435 61 321 7.0 18.0 0.00 0.00 0.00 56 1014.0
20260506192415 61 325 9.0 18.0 0.00 0.00 0.00 55 1013.9
20260506191416 62 326 9.0 15.0 0.00 0.00 0.00 54 1013.9
20260506190415 62 342 9.0 13.0 0.00 0.00 0.00 52 1013.9
20260506185415 63 333 10.0 18.0 0.00 0.00 0.00 49 1013.9
20260506184415 63 338 13.0 21.0 0.00 0.00 0.00 49 1013.8
20260506183416 64 344 7.0 17.0 0.00 0.00 0.00 49 1013.7
20260506182436 64 339 10.0 15.0 0.00 0.00 0.00 47 1013.8
20260506181415 65 341 10.0 18.0 0.00 0.00 0.00 45 1013.7
20260506180416 65 342 11.0 17.0 0.00 0.00 0.00 45 1013.9
20260506175415 65 339 7.0 15.0 0.00 0.00 0.00 45 1013.8
20260506174415 65 336 12.0 20.0 0.00 0.00 0.00 44 1014.0
20260506173435 66 350 11.0 21.0 0.00 0.00 0.00 43 1013.9
20260506172415 66 352 9.0 19.0 0.00 0.00 0.00 45 1014.1
20260506171415 66 337 9.0 16.0 0.00 0.00 0.00 44 1014.1
20260506170416 66 342 12.0 17.0 0.00 0.00 0.00 44 1014.2
20260506165537 49 0.0 0.0 0.00 0.00 0.00 22 1014.1
20260506165215 67 5 7.0 13.0 0.00 0.00 0.00 43 1014.2
20260506164215 67 347 8.0 15.0 0.00 0.00 0.00 44 1014.1
20260506163215 67 340 8.0 18.0 0.00 0.00 0.00 43 1014.2
20260506162215 67 353 12.0 19.0 0.00 0.00 0.00 44 1014.1
20260506161216 67 353 8.0 17.0 0.00 0.00 0.00 45 1014.1
20260506160215 68 333 8.0 15.0 0.00 0.00 0.00 44 1014.2
20260506155215 67 316 7.0 20.0 0.00 0.00 0.00 43 1014.3
20260506154236 68 342 8.0 18.0 0.00 0.00 0.00 43 1014.2
20260506153216 68 332 8.0 17.0 0.00 0.00 0.00 44 1014.3
20260506152215 68 346 14.0 21.0 0.00 0.00 0.00 43 1014.5
20260506151215 68 320 11.0 22.0 0.00 0.00 0.00 44 1014.5
20260506150215 68 356 7.0 14.0 0.00 0.00 0.00 43 1014.6
20260506145343 68 331 12.0 18.0 0.00 0.00 0.00 43 1015.0
20260506144215 69 336 3.0 13.0 0.00 0.00 0.00 41 1014.9
20260506143216 68 322 10.0 17.0 0.00 0.00 0.00 44 1015.0
20260506142216 69 333 8.0 17.0 0.00 0.00 0.00 42 1015.1
20260506141216 68 329 11.0 18.0 0.00 0.00 0.00 44 1015.2
20260506140215 68 337 11.0 20.0 0.00 0.00 0.00 44 1015.3
20260506135216 67 343 12.0 18.0 0.00 0.00 0.00 46 1015.4
20260506134215 67 339 5.0 14.0 0.00 0.00 0.00 45 1015.4
20260506133215 67 340 9.0 17.0 0.00 0.00 0.00 45 1015.7
20260506132237 68 341 11.0 14.0 0.00 0.00 0.00 46 1015.7
20260506131215 67 338 10.0 15.0 0.00 0.00 0.00 47 1015.9
20260506130215 67 337 8.0 14.0 0.00 0.00 0.00 47 1016.0
20260506125215 68 5 7.0 14.0 0.00 0.00 0.00 45 1016.0
20260506124215 66 324 7.0 18.0 0.00 0.00 0.00 47 1016.1
20260506123216 66 309 9.0 16.0 0.00 0.00 0.00 49 1016.3
20260506122216 66 332 8.0 14.0 0.00 0.00 0.00 48 1016.4
20260506121215 66 351 12.0 18.0 0.00 0.00 0.00 51 1016.5
20260506120216 66 322 9.0 17.0 0.00 0.00 0.00 50 1016.5
20260506115235 67 283 9.0 13.0 0.00 0.00 0.00 50 1016.6
20260506114235 66 325 6.0 13.0 0.00 0.00 0.00 52 1016.7
20260506113236 65 320 9.0 18.0 0.00 0.00 0.00 55 1016.8
20260506112215 66 330 11.0 17.0 0.00 0.00 0.00 49 1016.9
20260506111215 65 309 9.0 17.0 0.00 0.00 0.00 54 1016.8
20260506110216 65 314 8.0 17.0 0.00 0.00 0.00 52 1017.0
20260506105215 64 348 10.0 18.0 0.00 0.00 0.00 50 1017.0
20260506104215 66 336 9.0 18.0 0.00 0.00 0.00 52 1016.9
20260506103235 66 14 8.0 14.0 0.00 0.00 0.00 44 1017.0
20260506102215 65 338 9.0 15.0 0.00 0.00 0.00 45 1017.1
20260506101216 66 39 5.0 11.0 0.00 0.00 0.00 49 1017.1
20260506100216 64 352 8.0 12.0 0.00 0.00 0.00 50 1017.1
20260506095216 64 345 6.0 12.0 0.00 0.00 0.00 50 1017.2
20260506094215 64 354 6.0 17.0 0.00 0.00 0.00 50 1017.2
20260506093215 63 352 9.0 14.0 0.00 0.00 0.00 52 1017.2
20260506092236 62 18 4.0 14.0 0.00 0.00 0.00 54 1017.2
20260506091215 62 350 8.0 15.0 0.00 0.00 0.00 54 1017.2
20260506090216 62 17 8.0 16.0 0.00 0.00 0.00 55 1017.2
20260506085215 63 7 9.0 18.0 0.00 0.00 0.00 57 1017.2
20260506084216 62 2 9.0 15.0 0.00 0.00 0.00 59 1017.2
20260506083215 62 1 6.0 13.0 0.00 0.00 0.00 59 1017.2
20260506082215 62 351 8.0 14.0 0.00 0.00 0.00 60 1017.3
20260506081216 61 353 8.0 12.0 0.00 0.00 0.00 61 1017.3
20260506080216 61 360 6.0 12.0 0.00 0.00 0.00 63 1017.4
20260506073216 61 345 3.0 7.0 0.00 0.00 0.00 65 1017.2
20260506072216 60 349 4.0 7.0 0.00 0.00 0.00 66 1017.3
20260506071216 60 2 7.0 14.0 0.00 0.00 0.00 67 1017.4
20260506070215 59 3 7.0 12.0 0.00 0.00 0.00 68 1017.4
20260506062215 56 336 2.0 4.0 0.00 0.00 0.00 76 1017.3
20260506061216 55 1 2.0 3.0 0.00 0.00 0.00 78 1017.3
20260506060215 54 314 3.0 6.0 0.00 0.00 0.00 78 1017.2
20260506051216 55 257 2.0 4.0 0.00 0.00 0.00 77 1017.2
20260506050220 55 244 1.0 3.0 0.00 0.00 0.00 77 1017.2
20260506044216 55 355 3.0 8.0 0.00 0.00 0.00 77 1017.2